Location: Home
(42.5358°N, 72.7383°W)
Time: 07:00:41
(UTC-05:00)

Explorer 11/Cluster Stage 4 - Pass Details

Date: 05 December 2021
Orbit: 467 x 1255 km, 28.8° (Epoch: 25 January)

Event Time Altitude Azimuth Distance (km) Brightness Sun altitude
Rises 05:02:29 0° 255° (WSW) 3,817 - -21.9°
Reaches altitude 10° 05:05:46 10° 241° (WSW) 2,978 - -21.3°
Exits shadow 05:07:30 15° 229° (SW) 2,636 8.9 -21.0°
Maximum altitude 05:11:15 22° 194° (SSW) 2,339 8.9 -20.4°
Drops below altitude 10° 05:17:07 10° 148° (SSE) 3,208 10.3 -19.3°
Sets 05:20:49 0° 134° (SE) 4,187 11.3 -18.6°
